Weather Roundup
Issued by NWS Chicago, IL

Home | Current Version | Previous Version | Text Only | Print | Product List | Glossary On
Versions: 1 2 3 4 5 6 7 8 9 10 11 12 13 14 15 16 17 18 19 20 21 22 23 24 25 26 27 28 29 30 31 32 33 34 35 36 37 38 39 40 41 42 43 44 45 46 47 48 49 50
000
NZUS59 KLOT 192210
HRRLOT

CHICAGO AREA WEATHER ROUNDUP
NATIONAL WEATHER SERVICE CHICAGO/ROMEOVILLE IL
500 PM CDT SAT APR 19 2014

NOTE: "FAIR" INDICATES FEW OR NO CLOUDS BELOW 12,000 FEET WITH NO
SIGNIFICANT WEATHER AND/OR OBSTRUCTIONS TO VISIBILITY.

* THESE STATIONS ARE NOT UNDER NWS QUALITY CONTROL. THEY ALSO MAY NOT
  REPORT WEATHER SUCH AS PRECIPITATION OR FOG.

ILZ005-006-012>014-019>023-192300-
NORTHEAST ILLINOIS

CITY           SKY/WX    TMP DP  RH WIND       PRES   REMARKS
OHARE          PTSUNNY   65  36  34 SE12      30.23F
MIDWAY         CLOUDY    63  38  39 E10       30.25F
AURORA         MOSUNNY   69  33  26 SE14      30.22F
LANSING*       SUNNY     66  34  29 SE9       30.24F
JOLIET*        MOSUNNY   68  33  27 SE9       30.24F
WAUKEGAN       MOSUNNY   51  36  56 E7        30.25F
DUPAGE AIRPORT MOSUNNY   68  33  27 S14       30.22F
WHEELING       SUNNY     61  39  44 E9        30.26F
KANKAKEE*      SUNNY     68  38  33 SE13G20   30.24F
MORRIS*        MOSUNNY   70  22  16 SE10G16   30.22F
LEWIS AIRPORT* MOSUNNY   67  32  27 SE9       30.24S
NORTHERLY IS     N/A     52  38  58 N6          N/A
$$

WIZ051-052-058>065-066-070>072-192300-
SOUTHEAST WISCONSIN

CITY           SKY/WX    TMP DP  RH WIND       PRES   REMARKS
MILWAUKEE      PTSUNNY   52  36  54 SE9       30.26F
KENOSHA*       MOSUNNY   55  38  52 SE9       30.25F
RACINE*        MOSUNNY   52  36  54 SE10      30.27F
BURLINGTON     MOSUNNY   62  32  33 S10       30.22F
WAUKESHA       MOSUNNY   57  34  41 SE13      30.24F
WEST BEND      MOSUNNY   54  30  40 SE12      30.24F
$$

INZ001>003-010>013-019-020-192300-
NORTHWEST INDIANA

CITY           SKY/WX    TMP DP  RH WIND       PRES   REMARKS
GARY*          NOT AVBL
MICHIGAN CITY* NOT AVBL
RENSSELAER*    NOT AVBL
VALPARAISO     SUNNY     65  32  29 SE9       30.26F
$$

LMZ740>746-192300-
SOUTHERN LAKE MICHIGAN

STATION/POSITION TIME  SKY/WX   TEMP WIND        PRES    VSBY
                                AIR  DIR/SP/G
                 (UTC)          (F)  (DEG/KT/KT) (MB)    (MI)
HARRISON CRIB    2200            44  360/  5/  5   N/A
BURNHAM HARBOR   2200            51   10/  5/  7   N/A
CALUMET HARBOR   2200            49   10/  5/  7 1025.4S
BURNS HARBOR     NOT AVBL
MICHIGAN CITY    2200            64  100/  6/ 10   N/A
$$

ABBREVIATIONS USED IN REMARKS
   TC - TEMPERATURE IN CELSIUS
  WCI - WIND CHILL INDEX
   HX - HEAT INDEX
  VSB - VISIBILITY
$$



USA.gov is the U.S. government's official web portal to all federal, state and local government web resources and services.